Regional Weather Roundup
Issued by NWS

Home | Current Version | Previous Version | Text Only | Print | Product List | Glossary Off
Versions: 1 2 3 4 5 6 7 8 9 10 11 12 13 14 15 16 17 18 19 20 21 22 23 24 25 26 27 28 29 30 31 32 33 34 35 36 37 38 39 40 41 42 43 44 45 46 47 48 49 50

823
ASUS43 KMKX 102010
RWRWI

WISCONSIN REGIONAL WEATHER ROUNDUP
NATIONAL WEATHER SERVICE MILWAUKEE/SULLIVAN WI
200 PM CST WED FEB 10 2016

NOTE: "FAIR" INDICATES FEW OR NO CLOUDS BELOW 12,000 FEET WITH NO
SIGNIFICANT WEATHER AND/OR OBSTRUCTIONS TO VISIBILITY.

WIZ001-002-006>008-014>016-023>028-102100-
NORTHWEST WISCONSIN

CITY           SKY/WX    TMP DP  RH WIND       PRES   REMARKS
SUPERIOR ARPT  SUNNY      9  -3  57 CALM      30.14F
ASHLAND        PTSUNNY   10  -2  58 NE6       30.11S WCI   0
HAYWARD        SUNNY      9  -4  55 N6        30.05F WCI  -1
SIREN          SUNNY      7  -5  59 N3        30.11S
CUMBERLAND     SUNNY      7  -6  56 CALM      30.07R
RICE LAKE      SUNNY      9  -2  61 NW6       30.09S WCI  -1
CHETEK         SUNNY      9  -3  59 CALM      30.07F
LADYSMITH      MOSUNNY   12  -3  52 NW8       30.05S WCI   0
EAU CLAIRE     SUNNY      8  -3  61 NW7       30.08F WCI  -3
MENOMONIE      SUNNY     16  -4  42 CALM      30.10S
NEW RICHMOND   CLOUDY     7  -5  57 CALM      30.10F
OSCEOLA        SUNNY      8  -3  59 NW6       30.14S WCI  -2
$$

WIZ003>005-009-010-017-018-102100-
NORTH CENTRAL WISCONSIN

CITY           SKY/WX    TMP DP  RH WIND       PRES   REMARKS
MANITOWISH WTR CLOUDY     7  -4  61 NW9       29.97F WCI  -7
ARBOR VITAE    PTSUNNY    9  -2  60 N9G18     29.96S WCI  -4
WOODRUFF       PTSUNNY    9  -2  60 N9G18     29.96S WCI  -4
RHINELANDER    MOSUNNY    8  -5  55 NW8       29.96S WCI  -4
EAGLE RIVER    CLOUDY     8  -4  58 NW16      29.95S WCI -10
LAND O LAKES   CLOUDY     7  -4  61 N9        29.96S WCI  -6
PHILLIPS       CLOUDY     8  -3  62 NW8       29.99F WCI  -5
TOMAHAWK       PTSUNNY   11  -5  49 N10       29.98S WCI  -3
MEDFORD        PTSUNNY   10  -4  53 N7        29.98S WCI  -1
MERRILL        MOSUNNY   12  -4  47 N7        29.99S WCI   1
$$

WIZ029-030-035-036-043>047-102100-
CENTRAL WISCONSIN

CITY           SKY/WX    TMP DP  RH WIND       PRES   REMARKS
WAUSAU         MOSUNNY   13  -4  46 NW10G16   29.98F WCI   0
MOSINEE        MOSUNNY   10  -2  56 N6        29.99F WCI   1
MARSHFIELD     MOSUNNY   10  -5  50 NW13      30.00S WCI  -5
STEVENS POINT  MOSUNNY   11  -4  51 N12       30.00F WCI  -4
WAUPACA        MOSUNNY   16  -4  40 NW7       30.01F WCI   6
WAUTOMA        PTSUNNY   12  -3  51 NW9G17    30.03S WCI   0
WISC RAPIDS    MOSUNNY   11  -4  51 N14       30.03F WCI  -5
CAMP DOUGLAS   PTSUNNY   14   0  52 NW10      30.03S WCI   1
$$

WIZ011>013-019>022-031-037>040-048>050-102100-
NORTHEAST WISCONSIN

CITY           SKY/WX    TMP DP  RH WIND       PRES   REMARKS
ANTIGO         MOSUNNY    9  -5  53 N9        29.95S WCI  -4
SHAWANO        SUNNY     17  -6  35 NE8       30.00F WCI   6
OCONTO         SUNNY     14  -6  40 NW8G17    30.01S WCI   3
STURGEON BAY   MOSUNNY   14  -6  41 NW17      30.00R WCI  -3
GREEN BAY      SUNNY     13  -5  44 NW14      30.01S WCI  -2
MANITOWOC      SUNNY     14  -2  49 NW13      30.01S WCI   0
APPLETON       MOSUNNY   12  -6  44 NW12      29.99S WCI  -2
CLINTONVILLE   SUNNY     16  -6  38 N7        30.01S WCI   6
OSHKOSH        MOSUNNY   13  -3  49 N14       30.00F WCI  -2
$$

WIZ032>034-041-042-053>061-102100-
SOUTHWEST WISCONSIN

CITY           SKY/WX    TMP DP  RH WIND       PRES   REMARKS
LA CROSSE      CLOUDY    10  -2  58 W8        30.09S WCI  -2
SPARTA         CLOUDY    13  -1  53 NW6       30.07S WCI   4
VIROQUA        CLOUDY    10  -2  57 N7        30.01S WCI  -1
BOSCOBEL       CLOUDY    15  -3  44 NW7       30.07S WCI   5
PRAIRIE DU CHI MOSUNNY   16  -4  42 W7        30.07S WCI   6
PLATTEVILLE    SUNNY     13   0  55 NW8       30.02S WCI   2
$$

WIZ056-057-062-063-064-067-068-102100-
SOUTH CENTRAL WISCONSIN

CITY           SKY/WX    TMP DP  RH WIND       PRES   REMARKS
REEDSBURG      SUNNY     11  -2  56 N9        30.03S WCI  -1
BARABOO/DELLS  MOSUNNY   13  -3  49 NW6       30.02S WCI   4
LONE ROCK      NOT AVBL
MINERAL POINT  CLOUDY    16  -2  45 NW10      30.00S WCI   3
MADISON        PTSUNNY   12  -2  53 N12G18    30.02S WCI  -2
MIDDLETON      SUNNY     15   0  52 NW8       30.02S WCI   3
WATERTOWN      CLOUDY    13   1  60 NW10G17   30.01R WCI  -1
MONROE         SUNNY     16   1  53 NW10      30.00S WCI   3
JANESVILLE     PTSUNNY   16   3  57 NW13      30.02S WCI   2
$$

WIZ051-052-058>065-066-070>072-102100-
SOUTHEAST WISCONSIN

CITY           SKY/WX    TMP DP  RH WIND       PRES   REMARKS
MILWAUKEE      PTSUNNY   15  -1  49 NW12      30.00S WCI   2
WAUKESHA       CLOUDY    10   0  61 NW12      30.00S WCI  -4
MILWAUKEE/TIMM PTSUNNY   12  -4  48 NW14      30.01S WCI  -3
RACINE         PTSUNNY   15  -1  49 NW9       30.02R WCI   3
BURLINGTON     PTSUNNY   13  -1  54 NW13      30.01R WCI  -2
KENOSHA        PTSUNNY   15   1  53 NW10G18   30.00S WCI   2
FOND DU LAC    PTSUNNY   13  -2  51 N10       30.01S WCI   0
SHEBOYGAN      SUNNY     12  -4  48 NW12      30.00S WCI  -2
WEST BEND      PTSUNNY   12  -2  52 NW5       30.00R WCI   4
JUNEAU         CLOUDY    11   1  62 NW10      30.02R WCI  -2
$$

LSZ147-162-102100-
LAKE SUPERIOR

STATION/POSITION TIME  TEMP    WIND        PRES    WAVE
                       AIR SEA DIR/SP/G            HT/PER
                 (UTC) (F)     (DEG/KT/KT) (MB)    (FT/S)
DEVILS ISLAND    2000    8      20/  8/ 10 1021.6F
SAXON HARBOR     1940   11                 1019.0F
$$

LMZ867-665-643>646-102100-
LAKE MICHIGAN

STATION/POSITION TIME  TEMP    WIND        PRES    WAVE
                       AIR SEA DIR/SP/G            HT/PER
                 (UTC) (F)     (DEG/KT/KT) (MB)    (FT/S)
CHAMBERS ISLAND  1900   15     310/ 18/ 23 1014.9F
ALGOMA LAKESHORE 1911          330/ 15/ 21   N/A
KEWAUNEE LAKESHO 1900   12     310/ 10/ 17 1014.8F
SHEBOYGAN LAKESH 2000   11     320/ 15/ 17 1017.8R
PORT WASHINGTON  1900   13     310/ 10/ 15 1016.9F
MILWAUKEE LAKESH 1910   13     290/ 15/ 17   N/A
KENOSHA   LAKESH 2000   14     310/ 10/ 14 1016.3R
$$

TC  - TEMPERATURE IN CELSIUS
VSB - VISIBILITY IN STATUTE MILES
WCI - WIND CHILL INDEX
HX  - HEAT INDEX





USA.gov is the U.S. government's official web portal to all federal, state and local government web resources and services.